N1TKS Weather Reports


time (UTC)temp
F
wind
direction
speed
knots
gust
knots
rain 1hr
in
rain 24hr
in
rain mn
in
humidity
%
barometer
mb
20260506015654 66 188 1.7 2.6 0.00 0.00 0.00 68 1010.7
20260506015417 66 172 0.9 2.6 0.00 0.00 0.00 68 1010.5
20260506015405 66 188 0.0 0.0 0.00 0.00 0.00 68 1010.3
20260506015155 66 171 0.9 2.6 0.00 0.00 0.00 68 1010.6
20260506014812 66 171 0.9 1.7 0.00 0.00 0.00 68 1010.6
20260506014654 66 171 0.9 1.7 0.00 0.00 0.00 68 1010.6
20260506013654 66 172 0.9 2.6 0.00 0.00 0.00 68 1010.5
20260506013157 66 188 0.9 2.6 0.00 0.00 0.00 68 1010.4
20260506012654 66 188 0.0 0.0 0.00 0.00 0.00 68 1010.3
20260506012159 66 296 0.9 2.6 0.00 0.00 0.00 68 1009.9
20260506011155 66 186 0.9 2.6 0.00 0.00 0.00 68 1010.2
20260506010655 66 174 0.9 1.7 0.00 0.00 0.00 68 1010.1
20260506010154 66 223 0.9 2.6 0.00 0.00 0.00 68 1010.0
20260506005654 66 263 0.9 2.6 0.00 0.00 0.00 68 1010.0
20260506005155 66 296 0.9 2.6 0.00 0.00 0.00 68 1009.9
20260506005006 66 217 0.0 0.0 0.00 0.00 0.00 68 1009.7
20260506004655 66 217 0.0 0.0 0.00 0.00 0.00 68 1009.9
20260506004154 66 217 0.0 0.0 0.00 0.00 0.00 68 1009.8
20260506003653 66 217 0.0 0.0 0.00 0.00 0.00 68 1009.7
20260506003233 66 180 1.7 2.6 0.00 0.00 0.00 68 1009.6
20260506003215 66 178 1.7 4.3 0.00 0.00 0.00 69 1009.7
20260506003154 66 180 1.7 2.6 0.00 0.00 0.00 68 1009.6
20260506002654 66 172 0.9 4.3 0.00 0.00 0.00 68 1009.6
20260506002153 66 178 1.7 4.3 0.00 0.00 0.00 69 1009.7
20260506001815 66 193 0.9 1.7 0.00 0.00 0.00 67 1009.5
20260506001654 66 196 0.0 0.0 0.00 0.00 0.00 69 1009.7
20260506001153 66 196 0.0 0.0 0.00 0.00 0.00 69 1009.6
20260506000654 66 196 0.0 0.0 0.00 0.00 0.00 68 1009.7
20260505235653 66 193 0.9 1.7 0.00 0.00 0.00 67 1009.5
20260505235154 66 193 0.9 2.6 0.00 0.00 0.00 67 1009.4
20260505234658 67 191 1.7 2.6 0.00 0.00 0.00 67 1009.3
20260505234601 68 190 0.9 0.9 0.00 0.00 0.00 64 1008.9
20260505234159 67 191 0.9 2.6 0.00 0.00 0.00 66 1009.2
20260505233739 67 191 0.9 2.6 0.00 0.00 0.00 66 1009.2
20260505233653 67 191 0.9 2.6 0.00 0.00 0.00 66 1009.2
20260505233201 67 191 1.7 2.6 0.00 0.00 0.00 66 1009.1
20260505232735 68 191 1.7 2.6 0.00 0.00 0.00 65 1009.1
20260505232654 68 191 1.7 2.6 0.00 0.00 0.00 65 1009.1
20260505232235 68 190 0.9 2.6 0.00 0.00 0.00 64 1009.0
20260505232154 68 190 0.9 2.6 0.00 0.00 0.00 64 1009.0
20260505231756 68 190 0.9 0.9 0.00 0.00 0.00 64 1008.9
20260505231655 68 190 0.9 0.9 0.00 0.00 0.00 64 1008.9
20260505231155 69 192 1.7 2.6 0.00 0.00 0.00 63 1008.9
20260505230730 69 140 1.7 1.7 0.00 0.00 0.00 63 1008.8
20260505230653 69 140 1.7 1.7 0.00 0.00 0.00 63 1008.8
20260505224157 70 162 0.0 1.7 0.00 0.00 0.00 62 1008.5
20260505223822 70 213 0.9 2.6 0.00 0.00 0.00 61 1008.5
20260505223655 70 200 0.0 2.6 0.00 0.00 0.00 62 1008.4
20260505223154 70 200 0.9 0.9 0.00 0.00 0.00 61 1008.3
20260505221654 70 213 0.9 2.6 0.00 0.00 0.00 61 1008.5
20260505221153 70 185 1.7 2.6 0.00 0.00 0.00 61 1008.4
20260505221005 71 188 1.7 2.6 0.00 0.00 0.00 60 1008.2
20260505220959 71 194 0.9 2.6 0.00 0.00 0.00 60 1008.2
20260505220156 71 169 0.9 1.7 0.00 0.00 0.00 61 1008.3
20260505214653 71 188 1.7 2.6 0.00 0.00 0.00 60 1008.2
20260505214154 71 194 0.9 2.6 0.00 0.00 0.00 60 1008.2
20260505213800 72 187 0.9 1.7 0.00 0.00 0.00 59 1008.1
20260505213154 71 184 1.7 2.6 0.00 0.00 0.00 60 1008.1
20260505212155 71 218 0.9 1.7 0.00 0.00 0.00 60 1008.1
20260505211656 72 217 1.7 2.6 0.00 0.00 0.00 59 1008.1
20260505211154 72 187 0.9 1.7 0.00 0.00 0.00 59 1008.1
20260505210655 72 188 0.9 1.7 0.00 0.00 0.00 59 1008.0
20260505210607 72 205 1.7 2.6 0.00 0.00 0.00 59 1008.2
20260505210558 73 203 0.0 0.9 0.00 0.00 0.00 58 1008.2
20260505210327 72 173 2.6 4.3 0.00 0.00 0.00 59 1008.0
20260505210154 72 173 2.6 4.3 0.00 0.00 0.00 59 1008.0
20260505205332 72 197 0.9 2.6 0.00 0.00 0.00 59 1008.1
20260505205154 72 197 0.9 2.6 0.00 0.00 0.00 59 1008.1
20260505204654 72 207 0.9 2.6 0.00 0.00 0.00 59 1008.1
20260505204153 72 205 1.7 2.6 0.00 0.00 0.00 59 1008.2
20260505203733 73 203 0.0 0.9 0.00 0.00 0.00 58 1008.2
20260505203654 73 203 0.0 0.9 0.00 0.00 0.00 58 1008.2
20260505202655 73 45 0.9 2.6 0.00 0.00 0.00 59 1008.4
20260505201923 73 236 1.7 2.6 0.00 0.00 0.00 58 1008.4
20260505201653 73 236 1.7 2.6 0.00 0.00 0.00 58 1008.4
20260505201157 73 244 0.9 0.9 0.00 0.00 0.00 59 1008.4
20260505200736 73 207 2.6 4.3 0.00 0.00 0.00 59 1008.4
20260505200653 73 207 2.6 4.3 0.00 0.00 0.00 59 1008.4
20260505200202 73 167 1.7 2.6 0.00 0.00 0.00 59 1008.6
20260505195729 73 200 0.9 2.6 0.00 0.00 0.00 58 1008.7
20260505195658 73 200 0.9 2.6 0.00 0.00 0.00 58 1008.7
20260505194656 72 56 0.9 1.7 0.00 0.00 0.00 60 1008.8
20260505194650 72 196 0.0 0.0 0.00 0.00 0.00 59 1009.0
20260505193654 72 196 0.0 0.0 0.00 0.00 0.00 59 1009.0
20260505191154 73 202 1.7 4.3 0.00 0.00 0.00 59 1009.2
20260505190656 73 235 0.9 2.6 0.00 0.00 0.00 59 1009.4
20260505185154 73 203 1.7 2.6 0.00 0.00 0.00 57 1009.5
20260505184154 74 213 1.7 2.6 0.00 0.00 0.00 57 1009.6
20260505183654 74 220 1.7 4.3 0.00 0.00 0.00 57 1009.7
20260505182654 74 152 1.7 2.6 0.00 0.00 0.00 57 1009.7
20260505182404 74 199 1.7 2.6 0.00 0.00 0.00 56 1009.7
20260505182306 74 199 1.7 2.6 0.00 0.00 0.00 56 1009.7
20260505182154 74 199 1.7 2.6 0.00 0.00 0.00 56 1009.7
20260505181654 74 186 1.7 4.3 0.00 0.00 0.00 56 1009.6
20260505175657 75 203 1.7 2.6 0.00 0.00 0.00 54 1009.7
20260505174153 76 180 1.7 2.6 0.00 0.00 0.00 54 1009.8
20260505173654 75 186 0.9 1.7 0.00 0.00 0.00 55 1009.8
20260505173154 75 196 1.7 2.6 0.00 0.00 0.00 54 1009.8
20260505172654 75 208 1.7 2.6 0.00 0.00 0.00 53 1009.9
20260505172254 76 205 1.7 1.7 0.00 0.00 0.00 53 1009.9
20260505172212 76 205 1.7 1.7 0.00 0.00 0.00 53 1009.9
20260505171155 76 82 1.7 2.6 0.00 0.00 0.00 54 1010.0
20260505165002 74 226 1.7 2.6 0.00 0.00 0.00 57 1010.6
20260505164955 73 215 0.9 1.7 0.00 0.00 0.00 57 1010.7
20260505164656 75 197 0.9 1.7 0.00 0.00 0.00 54 1010.3
20260505163654 75 203 0.9 0.9 0.00 0.00 0.00 55 1010.4
20260505163239 74 138 0.9 1.7 0.00 0.00 0.00 57 1010.5
20260505163154 74 138 0.9 1.7 0.00 0.00 0.00 57 1010.5
20260505162653 74 226 1.7 2.6 0.00 0.00 0.00 57 1010.6
20260505162154 73 215 0.9 1.7 0.00 0.00 0.00 57 1010.7
20260505161914 73 192 1.7 2.6 0.00 0.00 0.00 56 1010.6
20260505161801 73 79 0.9 2.6 0.00 0.00 0.00 59 1011.0
20260505161654 73 192 1.7 2.6 0.00 0.00 0.00 56 1010.6
20260505161433 73 175 1.7 2.6 0.00 0.00 0.00 58 1010.6
20260505161307 73 175 1.7 2.6 0.00 0.00 0.00 58 1010.6
20260505161154 73 175 1.7 2.6 0.00 0.00 0.00 58 1010.6
20260505153158 73 178 1.7 2.6 0.00 0.00 0.00 60 1011.1
20260505152910 72 189 0.0 0.9 0.00 0.00 0.00 61 1011.1
20260505152654 72 189 0.0 0.9 0.00 0.00 0.00 61 1011.1
20260505152507 71 214 0.9 2.6 0.00 0.00 0.00 61 1011.2
20260505152153 71 214 0.9 2.6 0.00 0.00 0.00 61 1011.2
20260505151848 71 215 0.0 0.0 0.00 0.00 0.00 63 1011.2
20260505151653 71 215 0.0 0.0 0.00 0.00 0.00 63 1011.2
20260505151349 69 197 0.0 0.0 0.00 0.00 0.00 65 1011.5
20260505150843 70 191 1.7 5.2 0.00 0.00 0.00 63 1011.4
20260505150738 70 191 1.7 5.2 0.00 0.00 0.00 63 1011.4
20260505150654 70 191 1.7 5.2 0.00 0.00 0.00 63 1011.4
20260505150242 70 80 0.9 2.6 0.00 0.00 0.00 64 1011.5
20260505150153 70 80 0.9 2.6 0.00 0.00 0.00 64 1011.5
20260505140653 68 188 0.9 1.7 0.00 0.00 0.00 66 1011.4
20260505140154 68 186 0.9 1.7 0.00 0.00 0.00 66 1011.5
20260505130254 63 225 0.0 0.0 0.00 0.00 0.00 75 1011.4
20260505130155 63 225 0.0 0.0 0.00 0.00 0.00 75 1011.4
20260505124653 62 225 0.0 0.0 0.00 0.00 0.00 79 1011.3
20260505124234 61 225 0.0 0.0 0.00 0.00 0.00 79 1011.3
20260505124153 61 225 0.0 0.0 0.00 0.00 0.00 79 1011.3
20260505123351 58 225 0.0 0.0 0.00 0.00 0.00 84 1011.4
20260505123345 57 225 0.0 0.0 0.00 0.00 0.00 84 1011.4
20260505123154 60 225 0.0 0.0 0.00 0.00 0.00 81 1011.4
20260505122653 60 225 0.0 0.0 0.00 0.00 0.00 82 1011.5
20260505121656 58 225 0.0 0.0 0.00 0.00 0.00 84 1011.6
20260505121154 58 225 0.0 0.0 0.00 0.00 0.00 84 1011.4
20260505120653 57 225 0.0 0.0 0.00 0.00 0.00 84 1011.4
20260505120153 57 225 0.0 0.0 0.00 0.00 0.00 84 1011.5
20260505115653 57 225 0.0 0.0 0.00 0.00 0.00 84 1011.5
20260505115154 57 225 0.0 0.0 0.00 0.00 0.00 85 1011.5
20260505114654 57 225 0.0 0.0 0.00 0.00 0.00 85 1011.3
20260505114156 57 225 0.0 0.0 0.00 0.00 0.00 86 1011.3
20260505112153 54 225 0.0 0.0 0.00 0.00 0.00 89 1011.6
20260505102153 49 225 0.0 0.0 0.00 0.00 0.00 88 1011.1
20260505095153 49 225 0.0 0.0 0.00 0.00 0.00 88 1010.7
20260505094654 50 225 0.0 0.0 0.00 0.00 0.00 88 1010.6
20260505094152 50 225 0.0 0.0 0.00 0.00 0.00 88 1010.6
20260505093154 50 225 0.0 0.0 0.00 0.00 0.00 87 1010.6
20260505092656 50 225 0.0 0.0 0.00 0.00 0.00 87 1010.6
20260505092148 51 225 0.0 0.0 0.00 0.00 0.00 87 1010.7
20260505091653 50 225 0.0 0.0 0.00 0.00 0.00 87 1010.7
20260505091154 50 225 0.0 0.0 0.00 0.00 0.00 87 1010.7
20260505090816 51 225 0.0 0.0 0.00 0.00 0.00 87 1010.7
20260505090652 51 225 0.0 0.0 0.00 0.00 0.00 87 1010.7
20260505085654 51 225 0.0 0.0 0.00 0.00 0.00 87 1010.7
20260505084946 51 225 0.0 0.0 0.00 0.00 0.00 87 1010.7
20260505084653 51 225 0.0 0.0 0.00 0.00 0.00 87 1010.7
20260505084157 51 225 0.0 0.0 0.00 0.00 0.00 87 1010.6
20260505083654 51 225 0.0 0.0 0.00 0.00 0.00 86 1010.5
20260505083154 52 225 0.0 0.0 0.00 0.00 0.00 86 1010.6
20260505082652 52 225 0.0 0.0 0.00 0.00 0.00 86 1010.7
20260505082153 52 225 0.0 0.0 0.00 0.00 0.00 86 1010.7
20260505081752 52 225 0.0 0.0 0.00 0.00 0.00 86 1010.7
20260505081731 52 225 0.0 0.0 0.00 0.00 0.00 86 1010.7
20260505081652 52 225 0.0 0.0 0.00 0.00 0.00 86 1010.7
20260505080153 52 225 0.0 0.0 0.00 0.00 0.00 86 1010.7
20260505075653 52 225 0.0 0.0 0.00 0.00 0.00 86 1010.7
20260505074653 52 225 0.0 0.0 0.00 0.00 0.00 85 1010.6
20260505074153 52 225 0.0 0.0 0.00 0.00 0.00 85 1010.6
20260505073154 53 225 0.0 0.0 0.00 0.00 0.00 85 1010.6
20260505072154 53 225 0.0 0.0 0.00 0.00 0.00 84 1010.6
20260505071750 53 225 0.0 0.0 0.00 0.00 0.00 84 1010.6
20260505071655 53 225 0.0 0.0 0.00 0.00 0.00 84 1010.6
20260505071339 54 225 0.0 0.0 0.00 0.00 0.00 82 1010.7
20260505071306 53 225 0.0 0.0 0.00 0.00 0.00 84 1010.6
20260505071152 53 225 0.0 0.0 0.00 0.00 0.00 84 1010.6
20260505070924 53 225 0.0 0.0 0.00 0.00 0.00 83 1010.6
20260505070653 53 225 0.0 0.0 0.00 0.00 0.00 83 1010.6
20260505070154 54 225 0.0 0.0 0.00 0.00 0.00 83 1010.6
20260505065654 54 225 0.0 0.0 0.00 0.00 0.00 83 1010.7
20260505065230 54 225 0.0 0.0 0.00 0.00 0.00 82 1010.7
20260505065153 54 225 0.0 0.0 0.00 0.00 0.00 82 1010.7
20260505064653 54 225 0.0 0.0 0.00 0.00 0.00 82 1010.7
20260505064144 55 225 0.0 0.0 0.00 0.00 0.00 80 1010.8
20260505062729 55 225 0.0 0.0 0.00 0.00 0.00 81 1010.7
20260505062654 55 225 0.0 0.0 0.00 0.00 0.00 81 1010.7
20260505062154 55 225 0.0 0.0 0.00 0.00 0.00 80 1010.8
20260505061653 55 225 0.0 0.0 0.00 0.00 0.00 80 1010.8
20260505060944 56 225 0.0 0.0 0.00 0.00 0.00 78 1010.8
20260505060735 56 225 0.0 0.0 0.00 0.00 0.00 79 1010.7
20260505060653 56 225 0.0 0.0 0.00 0.00 0.00 79 1010.7
20260505060153 56 225 0.0 0.0 0.00 0.00 0.00 78 1010.7
20260505055653 56 225 0.0 0.0 0.00 0.00 0.00 78 1010.7
20260505054654 56 225 0.0 0.0 0.00 0.00 0.00 78 1010.8
20260505053748 57 225 0.0 0.0 0.00 0.00 0.00 76 1011.0
20260505053657 56 225 0.0 0.0 0.00 0.00 0.00 77 1010.9
20260505053154 56 225 0.0 0.0 0.00 0.00 0.00 77 1010.9
20260505052153 57 225 0.0 0.0 0.00 0.00 0.00 76 1011.0
20260505051653 57 225 0.0 0.0 0.00 0.00 0.00 76 1011.0
20260505051201 57 225 0.0 0.0 0.00 0.00 0.00 75 1011.0
20260505050652 57 225 0.0 0.0 0.00 0.00 0.00 75 1011.0
20260505041653 57 225 0.0 0.0 0.00 0.00 0.00 74 1011.3
20260505041348 57 225 0.0 0.0 0.00 0.00 0.00 74 1011.3
20260505041154 57 225 0.0 0.0 0.00 0.00 0.00 74 1011.3
20260505040131 57 225 0.0 0.0 0.00 0.00 0.00 74 1011.4
20260505035652 57 225 0.0 0.0 0.00 0.00 0.00 74 1011.3
20260505035244 57 225 0.0 0.0 0.00 0.00 0.00 74 1011.4
20260505035156 57 225 0.0 0.0 0.00 0.00 0.00 74 1011.4
20260505034654 57 225 0.0 0.0 0.00 0.00 0.00 74 1011.3
20260505034251 57 225 0.0 0.0 0.00 0.00 0.00 74 1011.3
20260505034155 57 225 0.0 0.0 0.00 0.00 0.00 74 1011.3
20260505033153 57 225 0.0 0.0 0.00 0.00 0.00 74 1011.4
20260505032705 57 225 0.0 0.0 0.00 0.00 0.00 74 1011.4
20260505031653 58 225 0.0 0.0 0.00 0.00 0.00 74 1011.3
20260505031154 57 225 0.0 0.0 0.00 0.00 0.00 74 1011.3
20260505030154 57 225 0.0 0.0 0.00 0.00 0.00 74 1011.4
20260505025742 57 225 0.0 0.0 0.00 0.00 0.00 75 1011.5
20260505025729 57 225 0.0 0.0 0.00 0.00 0.00 76 1011.5
20260505025653 57 225 0.0 0.0 0.00 0.00 0.00 74 1011.3
20260505023654 57 225 0.0 0.0 0.00 0.00 0.00 75 1011.5
20260505023155 57 225 0.0 0.0 0.00 0.00 0.00 76 1011.5
20260505022654 57 225 0.0 0.0 0.00 0.00 0.00 76 1011.5
20260505022157 57 225 0.0 0.0 0.00 0.00 0.00 76 1011.5
20260505021815 57 225 0.0 0.0 0.00 0.00 0.00 76 1011.5
20260505021655 57 225 0.0 0.0 0.00 0.00 0.00 76 1011.5
20260505020654 57 225 0.0 0.0 0.00 0.00 0.00 76 1011.5
20260505020236 57 225 0.0 0.0 0.00 0.00 0.00 76 1011.4
20260505020155 57 225 0.0 0.0 0.00 0.00 0.00 76 1011.4